• In Hungary
  • List of Countries
  • For 7 days
  • Water Temperature
  • Satellite Maps
  • Weather Map
  • News
  • Weather Widgets
  • user-avatar
    Login

    Hourly Weather Mutaevo

    Today, 27 May, Sunday

    Time Temperature Precipitation Wind Pressure Humidity
    00:00 +3°C° 0 mm 3 mps 749 mmHg 66%
    01:00 +3°C° 0 mm 2 mps 749 mmHg 69%
    02:00 +2°C° 0 mm 2 mps 750 mmHg 70%
    03:00 +2°C° 0 mm 2 mps 750 mmHg 72%
    04:00 +2°C° 0 mm 2 mps 750 mmHg 73%
    05:00 +3°C° 0 mm 2 mps 750 mmHg 68%
    06:00 +5°C° 0 mm 2 mps 750 mmHg 63%
    07:00 +7°C° 0 mm 3 mps 750 mmHg 58%
    08:00 +9°C° 0 mm 3 mps 750 mmHg 53%
    09:00 +11°C° 0 mm 4 mps 750 mmHg 49%
    10:00 +12°C° 0 mm 5 mps 750 mmHg 45%
    11:00 +13°C° 0 mm 5 mps 749 mmHg 46%
    12:00 +14°C° 0 mm 5 mps 749 mmHg 46%
    13:00 +16°C° 0 mm 5 mps 749 mmHg 47%
    14:00 +16°C° 0 mm 5 mps 748 mmHg 48%
    15:00 +16°C° 0 mm 6 mps 747 mmHg 50%
    16:00 +17°C° 0 mm 6 mps 747 mmHg 51%
    17:00 +16°C° 0 mm 5 mps 747 mmHg 56%
    18:00 +15°C° 0 mm 5 mps 746 mmHg 61%
    19:00 +14°C° 0 mm 4 mps 746 mmHg 66%
    20:00 +13°C° 0 mm 4 mps 745 mmHg 69%
    21:00 +12°C° 0 mm 4 mps 745 mmHg 72%
    22:00 +11°C° 0 mm 4 mps 745 mmHg 75%
    23:00 +9°C° 0 mm 5 mps 744 mmHg 75%

    Tomorrow, 28 May, Monday

    Time Temperature Precipitation Wind Pressure Humidity
    00:00 +9°C° 0 mm 5 mps 743 mmHg 75%
    01:00 +9°C° 0 mm 5 mps 742 mmHg 75%
    02:00 +9°C° 0.1 mm 6 mps 741 mmHg 76%
    03:00 +9°C° 0.1 mm 6 mps 741 mmHg 77%
    04:00 +9°C° 0.1 mm 6 mps 740 mmHg 78%
    05:00 +9°C° 0.9 mm 7 mps 739 mmHg 81%
    06:00 +9°C° 0.9 mm 7 mps 738 mmHg 83%
    07:00 +7°C° 0.9 mm 8 mps 738 mmHg 86%
    08:00 +8°C° 1.9 mm 7 mps 738 mmHg 88%
    09:00 +8°C° 1.9 mm 7 mps 738 mmHg 89%
    10:00 +8°C° 1.9 mm 6 mps 738 mmHg 91%
    11:00 +9°C° 0.3 mm 7 mps 738 mmHg 84%
    12:00 +10°C° 0.3 mm 7 mps 739 mmHg 77%
    13:00 +10°C° 0.3 mm 8 mps 739 mmHg 70%
    14:00 +10°C° 0.2 mm 8 mps 739 mmHg 67%
    15:00 +11°C° 0.2 mm 7 mps 740 mmHg 64%
    16:00 +11°C° 0.2 mm 7 mps 740 mmHg 60%
    17:00 +10°C° 0.1 mm 6 mps 740 mmHg 64%
    18:00 +9°C° 0.1 mm 6 mps 741 mmHg 67%
    19:00 +8°C° 0.1 mm 5 mps 741 mmHg 71%
    20:00 +6°C° 0 mm 4 mps 741 mmHg 75%
    21:00 +5°C° 0 mm 4 mps 742 mmHg 79%
    22:00 +4°C° 0 mm 3 mps 742 mmHg 83%
    23:00 +3°C° 0 mm 3 mps 743 mmHg 84%

    Day after tomorrow, 29 May, Tuesday

    Time Temperature Precipitation Wind Pressure Humidity
    00:00 +2°C° 0 mm 3 mps 743 mmHg 85%
    01:00 +2°C° 0 mm 3 mps 743 mmHg 86%
    02:00 +1°C° 0 mm 3 mps 743 mmHg 87%
    03:00 +1°C° 0 mm 3 mps 744 mmHg 88%
    04:00 0°C° 0 mm 3 mps 744 mmHg 89%
    05:00 +2°C° 0 mm 3 mps 744 mmHg 83%
    06:00 +3°C° 0 mm 4 mps 744 mmHg 76%
    07:00 +4°C° 0 mm 4 mps 744 mmHg 69%
    08:00 +6°C° 0 mm 5 mps 744 mmHg 64%
    09:00 +7°C° 0 mm 6 mps 744 mmHg 59%
    10:00 +8°C° 0 mm 6 mps 744 mmHg 54%
    11:00 +8°C° 0 mm 6 mps 744 mmHg 53%
    12:00 +9°C° 0 mm 6 mps 743 mmHg 51%
    13:00 +9°C° 0 mm 6 mps 743 mmHg 50%
    14:00 +9°C° 0 mm 6 mps 743 mmHg 53%
    15:00 +9°C° 0 mm 5 mps 743 mmHg 57%
    16:00 +9°C° 0 mm 5 mps 742 mmHg 60%
    17:00 +8°C° 0.1 mm 4 mps 742 mmHg 68%
    18:00 +9°C° 0.1 mm 3 mps 742 mmHg 76%
    19:00 +8°C° 0.1 mm 2 mps 742 mmHg 84%
    20:00 +7°C° 0.3 mm 2 mps 742 mmHg 87%
    21:00 +8°C° 0.3 mm 1 mps 742 mmHg 91%
    22:00 +7°C° 0.3 mm 1 mps 742 mmHg 95%
    23:00 +7°C° 0.1 mm 1 mps 741 mmHg 95%

    30 May, Wednesday

    Time Temperature Precipitation Wind Pressure Humidity
    00:00 +6°C° 0.1 mm 1 mps 741 mmHg 96%
    01:00 +6°C° 0.1 mm 1 mps 741 mmHg 96%
    02:00 +6°C° 0 mm 1 mps 741 mmHg 96%
    03:00 +6°C° 0 mm 1 mps 741 mmHg 97%
    04:00 +4°C° 0 mm 0 mps 741 mmHg 97%
    05:00 +7°C° 0 mm 1 mps 741 mmHg 95%
    06:00 +8°C° 0 mm 1 mps 741 mmHg 93%
    07:00 +8°C° 0 mm 2 mps 741 mmHg 91%
    08:00 +9°C° 0 mm 2 mps 741 mmHg 87%
    09:00 +10°C° 0 mm 2 mps 741 mmHg 84%
    10:00 +12°C° 0 mm 3 mps 741 mmHg 81%
    11:00 +12°C° 0.3 mm 3 mps 740 mmHg 82%
    12:00 +13°C° 0.3 mm 4 mps 740 mmHg 83%
    13:00 +13°C° 0.3 mm 4 mps 739 mmHg 84%
    14:00 +15°C° 0.6 mm 5 mps 739 mmHg 80%
    15:00 +16°C° 0.6 mm 6 mps 738 mmHg 77%
    16:00 +19°C° 0.6 mm 6 mps 738 mmHg 73%
    17:00 +17°C° 0.3 mm 6 mps 738 mmHg 75%
    18:00 +17°C° 0.3 mm 5 mps 737 mmHg 77%
    19:00 +16°C° 0.3 mm 5 mps 737 mmHg 79%
    20:00 +15°C° 0 mm 5 mps 736 mmHg 81%
    21:00 +14°C° 0 mm 5 mps 736 mmHg 82%
    22:00 +13°C° 0 mm 5 mps 736 mmHg 84%
    23:00 +13°C° 0 mm 6 mps 735 mmHg 83%

    31 May, Thursday

    Time Temperature Precipitation Wind Pressure Humidity
    00:00 +13°C° 0 mm 6 mps 735 mmHg 83%
    01:00 +12°C° 0 mm 7 mps 734 mmHg 83%
    02:00 +12°C° 0.1 mm 7 mps 734 mmHg 84%
    03:00 +12°C° 0.1 mm 7 mps 733 mmHg 85%
    04:00 +12°C° 0.1 mm 8 mps 733 mmHg 87%
    05:00 +12°C° 0.5 mm 7 mps 733 mmHg 88%
    06:00 +12°C° 0.5 mm 7 mps 733 mmHg 90%
    07:00 +14°C° 0.5 mm 7 mps 733 mmHg 91%
    08:00 +14°C° 0.5 mm 7 mps 733 mmHg 89%
    09:00 +14°C° 0.5 mm 7 mps 733 mmHg 87%
    10:00 +14°C° 0.5 mm 7 mps 734 mmHg 85%
    11:00 +15°C° 0.2 mm 7 mps 734 mmHg 77%
    12:00 +16°C° 0.2 mm 8 mps 734 mmHg 69%
    13:00 +17°C° 0.2 mm 8 mps 735 mmHg 61%
    14:00 +17°C° 0.1 mm 8 mps 735 mmHg 61%
    15:00 +17°C° 0.1 mm 7 mps 735 mmHg 60%
    16:00 +17°C° 0.1 mm 7 mps 735 mmHg 60%
    17:00 +15°C° 0 mm 6 mps 736 mmHg 63%
    18:00 +14°C° 0 mm 5 mps 736 mmHg 67%
    19:00 +13°C° 0 mm 4 mps 736 mmHg 70%
    20:00 +12°C° 0 mm 3 mps 737 mmHg 72%
    21:00 +10°C° 0 mm 2 mps 737 mmHg 74%
    22:00 +9°C° 0 mm 2 mps 738 mmHg 76%
    23:00 +10°C° 0.2 mm 1 mps 738 mmHg 77%

    1 June, Friday

    Time Temperature Precipitation Wind Pressure Humidity
    00:00 +9°C° 0.2 mm 1 mps 738 mmHg 77%
    01:00 +9°C° 0.2 mm 1 mps 738 mmHg 78%
    02:00 +9°C° 0.4 mm 1 mps 739 mmHg 81%
    03:00 +8°C° 0.4 mm 1 mps 739 mmHg 84%
    04:00 +8°C° 0.4 mm 1 mps 739 mmHg 87%
    05:00 +8°C° 0.4 mm 1 mps 739 mmHg 86%
    06:00 +7°C° 0.4 mm 2 mps 739 mmHg 85%
    07:00 +7°C° 0.4 mm 2 mps 740 mmHg 84%
    08:00 +8°C° 0.4 mm 2 mps 740 mmHg 83%
    09:00 +8°C° 0.4 mm 2 mps 740 mmHg 81%
    10:00 +9°C° 0.4 mm 3 mps 740 mmHg 79%
    11:00 +10°C° 0.2 mm 3 mps 739 mmHg 77%
    12:00 +10°C° 0.2 mm 3 mps 739 mmHg 75%
    13:00 +11°C° 0.2 mm 3 mps 739 mmHg 73%
    14:00 +12°C° 0 mm 3 mps 739 mmHg 70%
    15:00 +13°C° 0 mm 3 mps 738 mmHg 68%
    16:00 +14°C° 0 mm 3 mps 738 mmHg 65%
    17:00 +13°C° 0.1 mm 3 mps 738 mmHg 69%
    18:00 +13°C° 0.1 mm 4 mps 738 mmHg 74%
    19:00 +12°C° 0.1 mm 4 mps 738 mmHg 78%
    20:00 +11°C° 0 mm 4 mps 738 mmHg 80%
    21:00 +10°C° 0 mm 4 mps 738 mmHg 81%
    22:00 +8°C° 0 mm 4 mps 738 mmHg 83%
    23:00 +8°C° 0 mm 4 mps 737 mmHg 81%
    Show more